Overview Statistics Trail Chart Weather Telemetry Raw packets
 

This is the latest recevied weather packets stored in our database for station/object OK2ILA-10. If no packets are shown the sender has not sent any weather packets the latest 10 day(s).

<< 87 88 89 90 91 92 93 >>
Time Temp. Humidity Pressure Rain* Wind** Luminosity Snow
1787916703 27.22° C 43% 1017 hPa - - - -
1787916107 27.22° C 43% 1016.9 hPa - - - -
1787916103 27.22° C 43% 1016.9 hPa - - - -
1787915507 27.22° C 43% 1017.1 hPa - - - -
1787915504 27.22° C 43% 1017.1 hPa - - - -
1787914907 26.67° C 44% 1017.1 hPa - - - -
1787914903 26.67° C 44% 1017.1 hPa - - - -
1787914307 26.11° C 44% 1017.4 hPa - - - -
1787914303 26.11° C 44% 1017.4 hPa - - - -
1787913706 26.11° C 44% 1017.6 hPa - - - -
1787913702 26.11° C 44% 1017.6 hPa - - - -
1787913106 26.67° C 44% 1017.8 hPa - - - -
1787913102 26.67° C 44% 1017.8 hPa - - - -
1787912506 26.11° C 45% 1017.7 hPa - - - -
1787912502 26.11° C 45% 1017.7 hPa - - - -
1787911902 25.56° C 46% 1018 hPa - - - -
1787911306 25.56° C 45% 1018 hPa - - - -
1787911302 25.56° C 45% 1018 hPa - - - -
1787910706 26.11° C 44% 1018.2 hPa - - - -
1787910701 26.11° C 44% 1018.2 hPa - - - -
1787910105 26.11° C 45% 1018.3 hPa - - - -
1787910103 26.11° C 45% 1018.3 hPa - - - -
1787909501 26.11° C 46% 1018.4 hPa - - - -
1787908905 26.11° C 46% 1018.3 hPa - - - -
1787908901 26.11° C 46% 1018.3 hPa - - - -

* Rain since midnight (hover to see other rain measurements)
** Current wind speed in m/s (hover to see current wind gust speed)